Madera, CA

4:57 PM PST on December 12, 2017 (GMT -0800)
Madera Municipal

Weather History for KMAE - August, 2013

Change the Weather History Date:

Tuesday, August 6, 2013

  Actual Average Record
Temperature  
Mean Temperature 75 °F 78 °F  
Max Temperature 92 °F 96 °F 103 °F (2005)
Min Temperature 58 °F 60 °F 54 °F (2007)
Degree Days  
Heating Degree Days 0    
Month to date heating degree days 0  
Since 1 June heating degree days 0  
Since 1 July heating degree days 0  
Cooling Degree Days 10    
Month to date cooling degree days 62  
Year to date cooling degree days 1095  
Since 1 June cooling degree days 918  
Growing Degree Days 25 (Base 50)    
Moisture  
Dew Point 50 °F    
Average Humidity 48    
Maximum Humidity 78    
Minimum Humidity 18    
Precipitation  
Precipitation 0.00 in 0.00 in 0.13 in (1961)
Month to date precipitation 0.00 0.00  
Year to date precipitation 3.52 8.02  
Since 1 July precipitation T  
Snow  
Snow 0.00 in - - ()
Month to date snowfall 0.0  
Since 1 June snowfall 0.0  
Since 1 July snowfall 0.0  
Snow Depth 0.00 in    
Sea Level Pressure  
Sea Level Pressure 29.92 in    
Wind  
Wind Speed 9 mph (NW)    
Max Wind Speed 18 mph    
Max Gust Speed 26 mph    
Visibility 10 miles    
Events      
T = Trace of Precipitation, MM = Missing Value Source: NWS Daily Summary

Daily Weather History Graph

Daily Weather History Graph

Search for Another Location

Airport or City:

Trip Planner

Search our weather history database for the weather conditions in past years. The results will help you decide how hot, cold, wet, or windy it might be!

Date:

Astronomy

Aug. 06, 2013 Rise Set
Actual Time 6:10 AM PDT 8:01 PM PDT
Civil Twilight 5:41 AM PDT 8:30 PM PDT
Nautical Twilight 5:07 AM PDT 9:04 PM PDT
Astronomical Twilight 4:30 AM PDT 9:40 PM PDT
Moon 6:04 AM PDT (8/6) 7:41 PM PDT (8/6)
Length of Visible Light 14h 48m
Length of Day
13h 51m
Waning Crescent, 0% of the Moon is Illuminated
Aug 6
Waning Crescent
Aug 6
New
Aug 14
First Quarter
Aug 20
Full
Aug 28
Last Quarter

Hourly Weather History & Observations

Time (PDT) Temp. Heat Index Dew Point Humidity Pressure Visibility Wind Dir Wind Speed Gust Speed Precip Events Conditions
12:53 AM 66.0 °F - 55.0 °F 68% 29.91 in 10.0 mi WNW 4.6 mph - N/A   Clear
1:53 AM 63.0 °F - 54.0 °F 72% 29.90 in 10.0 mi WNW 5.8 mph - N/A   Clear
2:53 AM 61.0 °F - 53.1 °F 75% 29.89 in 10.0 mi WNW 5.8 mph - N/A   Clear
3:53 AM 60.1 °F - 52.0 °F 75% 29.90 in 10.0 mi West 6.9 mph - N/A   Clear
4:53 AM 60.1 °F - 52.0 °F 75% 29.90 in 10.0 mi NW 6.9 mph - N/A   Clear
5:53 AM 60.1 °F - 51.1 °F 72% 29.92 in 10.0 mi NW 5.8 mph - N/A   Clear
6:53 AM 59.0 °F - 51.1 °F 75% 29.94 in 9.0 mi NW 3.5 mph - N/A   Clear
7:53 AM 64.0 °F - 51.1 °F 63% 29.95 in 8.0 mi NW 6.9 mph - N/A   Clear
8:53 AM 69.1 °F - 51.1 °F 53% 29.96 in 10.0 mi NW 5.8 mph - N/A   Clear
9:53 AM - - - N/A% 29.97 in 9.0 mi NW 6.9 mph - N/A   Clear
10:53 AM 78.1 °F - 51.1 °F 39% 29.96 in - WNW 6.9 mph - N/A   Unknown
11:53 AM 82.0 °F - 50.0 °F 33% 29.95 in 6.0 mi WNW 10.4 mph - N/A   Haze
12:53 PM 84.9 °F - 51.1 °F 31% 29.94 in 10.0 mi NW 8.1 mph - N/A   Clear
1:53 PM 88.0 °F - 44.1 °F 22% 29.93 in 10.0 mi NW 6.9 mph - N/A   Clear
2:53 PM 90.0 °F - 41.0 °F 18% 29.91 in 10.0 mi WNW 10.4 mph - N/A   Clear
3:53 PM 91.0 °F - 42.1 °F 18% 29.89 in 10.0 mi NW 10.4 mph - N/A   Clear
4:53 PM 91.0 °F - 42.1 °F 18% 29.88 in 10.0 mi WNW 11.5 mph - N/A   Clear
5:53 PM 89.1 °F - 46.9 °F 23% 29.88 in 10.0 mi WNW 11.5 mph - N/A   Clear
6:53 PM 86.0 °F - 51.1 °F 30% 29.88 in 10.0 mi WNW 11.5 mph - N/A   Clear
7:53 PM 81.0 °F 80.4 °F 53.1 °F 38% 29.90 in 10.0 mi ENE 17.3 mph 20.7 mph N/A   Clear
8:53 PM 77.0 °F - 51.1 °F 40% 29.91 in 10.0 mi WNW 8.1 mph - N/A   Clear
9:53 PM 71.1 °F - 55.0 °F 57% 29.94 in 10.0 mi WNW 9.2 mph - N/A   Clear
10:53 PM 68.0 °F - 54.0 °F 61% 29.95 in 10.0 mi WNW 8.1 mph - N/A   Clear
11:53 PM 66.0 °F - 54.0 °F 65% 29.96 in 10.0 mi WNW 9.2 mph - N/A   Clear